This is the latest recevied weather packets stored in our database for station/object WW5JC. If no packets are shown the sender has not sent any weather packets the latest 10 day(s).
| Time | Temp. | Humidity | Pressure | Rain* | Wind** | Luminosity | Snow |
|---|---|---|---|---|---|---|---|
| 1788019392 | 31.67° C | 61% | 1020.4 hPa | 0 mm | - | 504 W/m² | - |
| 1788019090 | 31.11° C | 60% | 1020.5 hPa | 0 mm | - | 492 W/m² | - |
| 1788018790 | 31.11° C | 60% | 1020.3 hPa | 0 mm | - | 483 W/m² | - |
| 1788018485 | 31.11° C | 61% | 1020.5 hPa | 0 mm | - | 471 W/m² | - |
| 1788018184 | 30.56° C | 63% | 1020.4 hPa | 0 mm | - | 459 W/m² | - |
| 1788017881 | 31.11° C | 63% | 1020.5 hPa | 0 mm | - | 447 W/m² | - |
| 1788017577 | 30.56° C | 64% | 1020.5 hPa | 0 mm | - | 434 W/m² | - |
| 1788017273 | 30° C | 64% | 1020.4 hPa | 0 mm | - | 422 W/m² | - |
| 1788016969 | 30° C | 65% | 1020.5 hPa | 0 mm | - | 408 W/m² | - |
| 1788016668 | 30° C | 65% | 1020.3 hPa | 0 mm | - | 395 W/m² | - |
| 1788016366 | 29.44° C | 66% | 1020.5 hPa | 0 mm | - | 384 W/m² | - |
| 1788016062 | 29.44° C | 66% | 1020.5 hPa | 0 mm | - | 371 W/m² | - |
| 1788015760 | 29.44° C | 66% | 1020.5 hPa | 0 mm | - | 336 W/m² | - |
| 1788015455 | 28.89° C | 68% | 1020.4 hPa | 0 mm | - | 344 W/m² | - |
| 1788015150 | 28.89° C | 68% | 1020.6 hPa | 0 mm | - | 332 W/m² | - |
| 1788014848 | 28.89° C | 69% | 1020.7 hPa | 0 mm | - | 316 W/m² | - |
| 1788014543 | 28.89° C | 69% | 1020.9 hPa | 0 mm | - | 301 W/m² | - |
| 1788014238 | 28.33° C | 70% | 1020.6 hPa | 0 mm | - | 283 W/m² | - |
| 1788013932 | 28.33° C | 71% | 1020.6 hPa | 0 mm | - | 275 W/m² | - |
| 1788013627 | 27.78° C | 71% | 1020.7 hPa | 0 mm | - | 261 W/m² | - |
| 1788013315 | 27.78° C | 73% | 1020.7 hPa | 0 mm | - | 247 W/m² | - |
| 1788013010 | 27.78° C | 73% | 1020.6 hPa | 0 mm | - | 243 W/m² | - |
| 1788012709 | 27.22° C | 73% | 1020.7 hPa | 0 mm | - | 221 W/m² | - |
| 1788012405 | 27.22° C | 74% | 1020.7 hPa | 0 mm | - | 207 W/m² | - |
| 1788012099 | 26.67° C | 75% | 1020.6 hPa | 0 mm | - | 194 W/m² | - |
* Rain latest hour (hover to see other rain measurements)
** Current wind speed in m/s (hover to see current wind gust speed)